[[{"header":{"parameterUnit":"m.s-1","parameterCategory":1,"la1":30.2991,"la2":30.254,"lo1":-89.0895,"lo2":-89.0444,"dy":0.0017,"dx":0.0017,"nx":28,"ny":28,"refTime":"2023-08-31T03:00:00:Z","depth":0,"parameterNumber":2,"parameterNumberName":"U-component_of_WINDS"},"data":[0,0,0,0,0,0,0,0,0,0,0,0,0,0,0,0,0,0,0,0,0,0,0,0,0,0,0,0,0,0,0,0,0,0,0,0,0,0,0,0,0,0,0,0,0,0,0,0,0,0,0,0,0,0,0,0,0,0,-1.4257,-1.4257,0,-1.4301,-1.4301,-1.4302,-1.424,-1.4238,-1.4235,-1.4233,-1.428,-1.4283,-1.4286,0,0,0,0,0,0,0,0,0,0,0,0,0,-1.412,-1.4123,-1.4257,-1.4257,-1.4258,-1.4301,-1.4301,-1.4302,-1.424,-1.4238,-1.4235,-1.4232,-1.4279,-1.4283,-1.4287,0,0,0,0,0,0,0,0,0,0,0,0,0,-1.4173,-1.4123,-1.4257,-1.4232,-1.423,-1.43,-1.4301,-1.4302,-1.4241,-1.4237,-1.4234,-1.4231,-1.4277,-1.4282,-1.4287,-1.4384,0,0,-1.4302,-1.4304,0,0,0,0,0,0,0,0,-1.417,-1.4178,-1.4235,-1.4234,-1.4232,-1.4261,-1.427,-1.4329,-1.4242,-1.4237,-1.4233,-1.4229,-1.4276,-1.4281,-1.4297,-1.4386,-1.4388,-1.4303,-1.4306,-1.4308,-1.4309,0,0,0,0,0,0,0,-1.4167,-1.4176,-1.4274,-1.4236,-1.4234,-1.4219,-1.4223,-1.4281,-1.4275,-1.4237,-1.4233,-1.4239,-1.4275,-1.4292,-1.4297,-1.4389,-1.4302,-1.4307,-1.431,-1.4312,-1.4559,-1.4562,0,0,0,0,0,0,-1.4166,-1.4173,-1.4273,-1.4275,-1.4192,-1.4224,-1.4229,-1.4255,-1.4274,-1.4273,-1.4241,-1.4236,-1.4285,-1.4292,-1.4299,-1.4414,-1.4308,-1.4312,-1.4315,-1.4555,-1.456,-1.4564,0,0,0,0,0,0,-1.4163,-1.4175,-1.4271,-1.4223,-1.4234,-1.423,-1.4261,-1.4258,-1.4275,-1.4277,-1.4276,-1.426,-1.4283,-1.4292,-1.4363,-1.4415,-1.4315,-1.4319,-1.4551,-1.4557,-1.4562,-1.4644,0,0,0,0,0,0,-1.4159,-1.4174,-1.4211,-1.4224,-1.4237,-1.4335,-1.4264,-1.4261,-1.4284,-1.4276,-1.4294,-1.4294,-1.4281,-1.4356,-1.4368,-1.442,-1.4323,-1.4547,-1.4554,-1.456,-1.4637,-1.4652,-1.4665,0,0,0,0,0,-1.4155,-1.4233,-1.4213,-1.4226,-1.4283,-1.4338,-1.4345,-1.4328,-1.4288,-1.4325,-1.4326,-1.4294,-1.4406,-1.4364,-1.4377,-1.4431,-1.4543,-1.4552,-1.4559,-1.4631,-1.4649,-1.4664,0,0,0,0,0,0,-1.4227,-1.4234,-1.4213,-1.4298,-1.4317,-1.4327,-1.4374,-1.4348,-1.4379,-1.4372,-1.4349,-1.4354,-1.443,-1.4437,-1.4389,-1.4525,-1.4468,-1.4479,-1.4518,-1.4535,-1.4549,-1.4547,-1.4327,0,0,0,0,0,-1.4252,-1.4296,-1.43,-1.4375,-1.4386,-1.4378,-1.4401,-1.4386,-1.4406,-1.4414,-1.442,-1.4441,-1.4481,-1.4508,-1.4545,-1.4637,-1.464,-1.468,-1.4694,-1.4705,-1.4716,-1.4765,-1.4783,-1.459,-1.459,-1.459,0,0,-1.4307,-1.4316,-1.4345,-1.439,-1.4403,-1.4449,-1.4386,-1.4437,-1.4471,-1.4422,-1.449,-1.4495,-1.4517,-1.4599,-1.4635,-1.4607,-1.4769,-1.4715,-1.4725,-1.4729,-1.4776,-1.4794,-1.481,-1.4596,-1.4595,-1.4594,0,0,-1.4429,-1.444,-1.4503,-1.4518,-1.4539,-1.4533,-1.4548,-1.4561,-1.4563,-1.463,-1.4594,-1.4634,-1.4703,-1.472,-1.4738,-1.4865,-1.4837,-1.4877,-1.4951,-1.4999,-1.5015,-1.5028,-1.5075,-1.5091,-1.4888,-1.4888,-1.4888,0,-1.4494,-1.4562,-1.454,-1.4594,-1.4615,-1.4571,-1.4636,-1.4651,-1.4683,-1.4699,-1.4666,-1.4752,-1.4763,-1.4849,-1.4879,-1.4895,-1.4912,-1.4877,-1.5014,-1.5027,-1.5039,-1.5084,-1.5101,-1.4893,-1.4892,-1.4892,-1.4891,0,-1.4641,-1.4688,-1.4737,-1.4769,-1.4795,-1.4854,-1.4841,-1.487,-1.4852,-1.485,-1.4919,-1.493,-1.4969,-1.4987,-1.4971,-1.5071,-1.5053,-1.5017,-1.496,-1.5063,-1.5104,-1.5121,-1.49,-1.4898,-1.4897,-1.4895,0,0,-1.4813,-1.483,-1.4849,-1.4863,-1.4882,-1.4918,-1.4975,-1.5012,-1.5038,-1.506,-1.5108,-1.5167,-1.5134,-1.5154,-1.5138,-1.5181,-1.5282,-1.514,-1.514,-1.5168,-1.5394,-1.5422,-1.5442,-1.5262,-1.5265,-1.5267,-1.5393,0,-1.4936,-1.5035,-1.5016,-1.5112,-1.5156,-1.5114,-1.5163,-1.518,-1.5179,-1.5216,-1.5214,-1.5256,-1.5209,-1.5221,-1.5261,-1.5261,-1.5327,-1.5251,-1.5307,-1.531,-1.5306,-1.5464,-1.5494,-1.5612,-1.5409,-1.5411,-1.5413,0,-1.5094,-1.5123,-1.5223,-1.5235,-1.5252,-1.5297,-1.533,-1.5365,-1.5383,-1.5379,-1.5401,-1.5377,-1.5433,-1.5373,-1.5451,-1.54,-1.5421,-1.5425,-1.5429,-1.5435,-1.537,-1.5476,-1.5649,-1.5667,-1.5438,-1.5436,-1.5434,0,-1.5212,-1.5275,-1.5343,-1.5356,-1.5371,-1.5404,-1.5411,-1.5426,-1.5449,-1.5477,-1.5492,-1.5526,-1.5546,-1.5572,-1.5558,-1.5516,-1.5639,-1.5578,-1.5638,-1.5639,-1.5669,-1.5667,-1.5849,-1.5679,-1.5678,-1.5678,-1.5678,0,-1.5353,-1.5417,-1.5396,-1.5439,-1.5509,-1.5485,-1.5555,-1.5558,-1.5571,-1.5613,-1.5578,-1.5618,-1.5596,-1.5635,-1.5623,-1.569,-1.5699,-1.5697,-1.5694,-1.5702,-1.5703,-1.5718,-1.571,-1.5683,-1.5682,-1.5681,-1.568,0,-1.5498,-1.5487,-1.5559,-1.5566,-1.5569,-1.5621,-1.5627,-1.5666,-1.5661,-1.5715,-1.5726,-1.5719,-1.5762,-1.575,-1.5797,-1.5789,-1.5874,-1.5859,-1.5869,-1.5866,-1.5927,-1.5923,-1.6127,-1.6153,-1.5964,-1.5966,-1.5967,0,-1.5591,-1.5638,-1.565,-1.5676,-1.5686,-1.5728,-1.5751,-1.5729,-1.5755,-1.5778,-1.5816,-1.5855,-1.5887,-1.5958,-1.5957,-1.5993,-1.598,-1.6049,-1.5985,-1.5992,-1.5983,-1.5982,-1.5987,-1.6063,-1.6065,-1.6067,-1.6068,0,-1.5756,-1.5748,-1.5783,-1.5816,-1.5844,-1.5869,-1.5891,-1.5914,-1.5893,-1.5924,-1.5968,-1.5992,-1.6039,-1.608,-1.6112,-1.612,-1.6092,-1.6087,-1.6104,-1.6114,-1.6118,-1.6118,-1.5906,-1.6084,-1.6082,-1.6081,-1.608,-1.6079,-1.5879,-1.592,-1.5935,-1.5974,-1.5988,-1.6009,-1.6046,-1.6045,-1.6081,-1.6118,-1.6103,-1.6153,-1.6169,-1.6209,-1.6221,-1.626,-1.6234,-1.6257,-1.6264,-1.627,-1.6279,-1.6109,-1.6266,-1.6265,-1.6265,-1.6265,-1.6264,0,-1.6045,-1.6052,-1.6088,-1.6119,-1.6151,-1.6119,-1.6141,-1.6169,-1.6214,-1.6231,-1.6262,-1.6312,-1.6351,-1.6352,-1.6388,-1.6419,-1.6407,-1.643,-1.6429,-1.6431,-1.6299,-1.6283,-1.6439,-1.6439,-1.6439,-1.6439,-1.6439,-1.6439,-1.6135,-1.6202,-1.6195,-1.6269,-1.6275,-1.6324,-1.6339,-1.6358,-1.6372,-1.6429,-1.6461,-1.6461,-1.6471,-1.6508,-1.6542,-1.6541,-1.6557,-1.6585,-1.658,-1.6457,-1.644,-1.6424,-1.6408,-1.6588,-1.6588,-1.6708,-1.6709,-1.671]},{"header":{"parameterUnit":"m.s-1","parameterCategory":1,"la1":30.2991,"la2":30.254,"lo1":-89.0895,"lo2":-89.0444,"dy":0.0017,"dx":0.0017,"nx":28,"ny":28,"refTime":"2023-08-31T03:00:00:Z","depth":0,"parameterNumber":3,"parameterNumberName":"V-component_of_WINDS"},"data":[0,0,0,0,0,0,0,0,0,0,0,0,0,0,0,0,0,0,0,0,0,0,0,0,0,0,0,0,0,0,0,0,0,0,0,0,0,0,0,0,0,0,0,0,0,0,0,0,0,0,0,0,0,0,0,0,0,0,-4.3128,-4.313,0,-4.3229,-4.323,-4.3231,-4.3176,-4.3173,-4.3171,-4.3168,-4.3268,-4.3274,-4.3279,0,0,0,0,0,0,0,0,0,0,0,0,0,-4.2886,-4.2891,-4.3128,-4.313,-4.3131,-4.3229,-4.323,-4.3231,-4.3177,-4.3173,-4.317,-4.3167,-4.3267,-4.3273,-4.3279,0,0,0,0,0,0,0,0,0,0,0,0,0,-4.2989,-4.2892,-4.3128,-4.3115,-4.3115,-4.3228,-4.323,-4.3232,-4.3177,-4.3173,-4.3169,-4.3165,-4.3265,-4.3272,-4.328,-4.3411,0,0,-4.3304,-4.3307,0,0,0,0,0,0,0,0,-4.2983,-4.2998,-4.3116,-4.3116,-4.3117,-4.3186,-4.3181,-4.3292,-4.3178,-4.3154,-4.3168,-4.3163,-4.3244,-4.3253,-4.3281,-4.3415,-4.342,-4.3305,-4.3309,-4.3313,-4.3315,0,0,0,0,0,0,0,-4.2976,-4.2994,-4.3168,-4.3118,-4.3118,-4.3104,-4.3114,-4.3202,-4.3221,-4.3156,-4.3152,-4.3165,-4.3243,-4.3274,-4.3283,-4.3421,-4.3304,-4.3311,-4.3316,-4.3319,-4.3666,-4.3671,0,0,0,0,0,0,-4.297,-4.2988,-4.3165,-4.3171,-4.3039,-4.3111,-4.3123,-4.3168,-4.322,-4.3224,-4.3168,-4.3162,-4.3262,-4.3274,-4.3286,-4.3442,-4.3313,-4.332,-4.3325,-4.3662,-4.3667,-4.3672,0,0,0,0,0,0,-4.2965,-4.2987,-4.3161,-4.3079,-4.31,-4.312,-4.3171,-4.3172,-4.3202,-4.3229,-4.3232,-4.3196,-4.326,-4.3275,-4.338,-4.3445,-4.3324,-4.3331,-4.3657,-4.3664,-4.367,-4.3756,0,0,0,0,0,0,-4.2959,-4.2985,-4.3036,-4.308,-4.3104,-4.3254,-4.3175,-4.3177,-4.3216,-4.3209,-4.3256,-4.326,-4.3258,-4.3369,-4.3388,-4.3454,-4.3337,-4.3651,-4.366,-4.3668,-4.3747,-4.3765,-4.3779,0,0,0,0,0,-4.295,-4.3056,-4.3039,-4.306,-4.3168,-4.3258,-4.3272,-4.3268,-4.3222,-4.3272,-4.3289,-4.3258,-4.3435,-4.338,-4.3401,-4.347,-4.3647,-4.3657,-4.3667,-4.374,-4.3761,-4.3779,0,0,0,0,0,0,-4.3018,-4.3061,-4.3043,-4.3166,-4.3209,-4.3249,-4.3312,-4.3291,-4.3347,-4.3337,-4.3329,-4.3341,-4.345,-4.347,-4.3408,-4.3599,-4.3533,-4.3548,-4.3582,-4.3602,-4.3618,-4.3611,-4.3343,0,0,0,0,0,-4.3047,-4.3117,-4.3151,-4.3256,-4.3279,-4.3292,-4.3331,-4.3325,-4.3368,-4.3386,-4.341,-4.3453,-4.3518,-4.3561,-4.3622,-4.375,-4.3759,-4.3807,-4.3823,-4.3837,-4.385,-4.3918,-4.394,-4.3706,-4.3706,-4.3705,0,0,-4.3108,-4.3141,-4.3185,-4.3271,-4.3303,-4.3375,-4.3308,-4.3387,-4.344,-4.3397,-4.3498,-4.3518,-4.3564,-4.3681,-4.3734,-4.3702,-4.3916,-4.385,-4.386,-4.3866,-4.393,-4.3953,-4.3972,-4.3713,-4.3711,-4.371,0,0,-4.3257,-4.3289,-4.338,-4.3413,-4.3463,-4.3471,-4.3493,-4.3536,-4.3548,-4.3649,-4.3619,-4.3681,-4.3793,-4.3828,-4.386,-4.4021,-4.3994,-4.4041,-4.4125,-4.4192,-4.421,-4.4226,-4.4283,-4.4304,-4.4054,-4.4054,-4.4054,0,-4.3326,-4.3434,-4.3429,-4.3511,-4.3549,-4.3514,-4.3606,-4.3638,-4.3706,-4.3732,-4.3695,-4.3835,-4.3865,-4.3988,-4.4028,-4.4055,-4.4079,-4.4036,-4.4208,-4.4224,-4.424,-4.4294,-4.4315,-4.4059,-4.4059,-4.4058,-4.4057,0,-4.3517,-4.3592,-4.366,-4.3726,-4.3772,-4.3858,-4.3865,-4.3911,-4.39,-4.3912,-4.4015,-4.4048,-4.4116,-4.4144,-4.4135,-4.4267,-4.4246,-4.4209,-4.4143,-4.4267,-4.4318,-4.4339,-4.4067,-4.4065,-4.4063,-4.4062,0,0,-4.3711,-4.3774,-4.3798,-4.3828,-4.388,-4.3938,-4.4022,-4.4089,-4.4128,-4.4176,-4.4245,-4.4341,-4.4307,-4.4344,-4.4337,-4.4396,-4.452,-4.4352,-4.4352,-4.4382,-4.4668,-4.4695,-4.4719,-4.4503,-4.4507,-4.451,-4.4664,0,-4.3863,-4.4011,-4.4008,-4.4145,-4.4214,-4.4182,-4.4255,-4.4294,-4.4307,-4.4367,-4.438,-4.4448,-4.4399,-4.4421,-4.4477,-4.4493,-4.4578,-4.4482,-4.4567,-4.457,-4.4556,-4.4746,-4.4775,-4.4919,-4.4683,-4.4687,-4.4689,0,-4.406,-4.4114,-4.4259,-4.43,-4.4329,-4.4395,-4.4455,-4.4513,-4.4557,-4.4562,-4.4603,-4.4587,-4.4671,-4.4603,-4.4718,-4.4653,-4.4687,-4.47,-4.4706,-4.4714,-4.4637,-4.4759,-4.4964,-4.4986,-4.472,-4.4718,-4.4716,0,-4.4186,-4.4296,-4.4396,-4.4423,-4.4474,-4.4521,-4.4544,-4.4584,-4.4624,-4.4676,-4.4702,-4.4763,-4.4797,-4.4844,-4.4844,-4.4795,-4.4961,-4.4893,-4.4967,-4.4967,-4.5003,-4.5001,-4.5218,-4.5026,-4.5025,-4.5025,-4.5024,0,-4.4356,-4.4446,-4.4454,-4.4516,-4.4615,-4.461,-4.4707,-4.4726,-4.4761,-4.4825,-4.4801,-4.4861,-4.4858,-4.4919,-4.492,-4.5015,-4.503,-4.5036,-4.5035,-4.5038,-4.5038,-4.5061,-4.5051,-4.5031,-4.5029,-4.5028,-4.5027,0,-4.4515,-4.4524,-4.4631,-4.4671,-4.4683,-4.4754,-4.4788,-4.4846,-4.4856,-4.4937,-4.4956,-4.4972,-4.5042,-4.5048,-4.5129,-4.5129,-4.5244,-4.5232,-4.523,-4.5228,-4.5302,-4.5295,-4.5541,-4.5572,-4.536,-4.5362,-4.5363,0,-4.4622,-4.4691,-4.4738,-4.4779,-4.4806,-4.4873,-4.4914,-4.4911,-4.4954,-4.5009,-4.506,-4.5128,-4.5183,-4.5296,-4.5315,-4.5376,-4.5366,-4.5447,-4.5375,-4.5376,-4.5367,-4.5363,-4.5369,-4.5462,-4.5464,-4.5466,-4.5467,0,-4.4812,-4.4814,-4.4874,-4.4936,-4.4986,-4.5034,-4.508,-4.5115,-4.5117,-4.5167,-4.5239,-4.5282,-4.5365,-4.5432,-4.5492,-4.5515,-4.5492,-4.549,-4.5511,-4.5515,-4.551,-4.5513,-4.5269,-4.5485,-4.5483,-4.5482,-4.5481,-4.548,-4.4949,-4.5008,-4.505,-4.5118,-4.5152,-4.5195,-4.5251,-4.5269,-4.5329,-4.5397,-4.5392,-4.5471,-4.5512,-4.5591,-4.5618,-4.5679,-4.5651,-4.5681,-4.5689,-4.5696,-4.5704,-4.5501,-4.569,-4.569,-4.5689,-4.5689,-4.5689,0,-4.5137,-4.5163,-4.5225,-4.529,-4.5343,-4.5317,-4.5366,-4.5412,-4.5483,-4.5523,-4.5577,-4.566,-4.5725,-4.5748,-4.5811,-4.5856,-4.5847,-4.5873,-4.5869,-4.5875,-4.5725,-4.5701,-4.5879,-4.5879,-4.5879,-4.5879,-4.5879,-4.5879,-4.5242,-4.534,-4.5346,-4.546,-4.5485,-4.5564,-4.5593,-4.5632,-4.5665,-4.5758,-4.5813,-4.5828,-4.5861,-4.5926,-4.5985,-4.599,-4.6014,-4.6044,-4.6045,-4.5905,-4.5885,-4.5867,-4.5845,-4.605,-4.605,-4.619,-4.6191,-4.6192]}]]